Flag for Germany Weather past 2 weeks in Bad Homburg, Hesse, Germany

Now
66 °F

Overcast.


Feels Like: 66 °F
Forecast: 54 / 70 °F
Wind: 2 mph from Northeast

Location: Frankfurt / M-Flughafen

Current Time: Sep 2, 2014 at 9:01:50 PM

Latest Report: Sep 2, 2014 at 8:00 PM


Visibility: 31 mi

Pressure: 30.16 "Hg

Humidity: 69%

Dew point: 55 °F

Location of Bad HomburgLocation

Historic Weather in Bad Homburg — Graph

°F

Bad Homburg temperature yesterday

Maximum temperature yesterday: 66 °F (at 3:00 PM)
Minimum temperature yesterday: 52 °F (at 4:00 AM)
Average temperature yesterday: 60 °F

Past Weeks' High & Low Weather Summary

 TemperatureHumidityPressure
High75 °F (Aug 29, 3:00 PM)96% (Aug 19, 7:00 AM)30.16 "Hg (Aug 19, 7:00 AM)
Low46 °F (Aug 22, 4:00 AM)32% (Aug 22, 5:00 PM)29.66 "Hg (Aug 26, 8:00 AM)
Average60 °F74%29.99 "Hg
* Reported Aug 18 8:00 PM — Sep 2 8:00 PM, Bad Homburg, Weather by CustomWeather, © 2014

Note: Actual official high and low records may vary slightly from our data, if they occured in-between our weather recording intervals... More about our weather records

Advertising

Bad Homburg weather history for previous 24 hours

 ConditionsComfort  
Time TempWeatherWind HumidityBarometerVisibility
8:00 PM
Sep 2
66 °FMild.2 mph69%30.16 "HgN/A
7:00 PM66 °FPartly sunny.3 mph67%30.15 "Hg31 mi
6:00 PM66 °FPartly sunny.3 mph65%30.15 "Hg31 mi
4:00 PM65 °FOvercast.3 mph67%30.16 "Hg31 mi
3:00 PM67 °FOvercast.3 mph57%30.15 "Hg31 mi
2:00 PM68 °FOvercast.2 mph49%30.15 "Hg28 mi
1:00 PM67 °FPartly sunny.2 mph58%30.15 "Hg25 mi
12:00 PM65 °FOvercast.3 mph60%30.16 "Hg22 mi
10:00 AM61 °FScattered clouds.1 mph76%30.16 "Hg12 mi
9:00 AM58 °FPartly sunny.2 mph85%30.16 "Hg12 mi
8:00 AM56 °FPartly sunny.1 mph90%30.16 "Hg12 mi
7:00 AM56 °FPartly sunny.1 mph87%30.15 "Hg12 mi
6:00 AM55 °FOvercast.1 mph90%30.15 "Hg16 mi
4:00 AM53 °FOvercast.1 mph91%30.15 "Hg16 mi
3:00 AM54 °FPassing clouds.1 mph91%30.15 "Hg22 mi
2:00 AM58 °FPassing clouds.1 mph82%30.15 "Hg22 mi
1:00 AM60 °FOvercast.1 mph76%30.15 "Hg22 mi
12:00 AM62 °FOvercast.2 mph69%30.15 "Hg22 mi
10:00 PM
Sep 1
63 °FOvercast.2 mph66%30.16 "Hg22 mi
9:00 PM63 °FOvercast.3 mph64%30.14 "Hg19 mi
Weather by CustomWeather, © 2014

See weather overviewHow to use our weather pages